Onalaska, WI

9:04 AM CDT on August 24, 2016 (GMT -0500)
La Crosse Municipal

Weather History for KLSE - April, 2013

Change the Weather History Date:

Saturday, April 27, 2013

  Actual Average Record
Temperature  
Mean Temperature 61 °F 54 °F  
Max Temperature 72 °F 65 °F 88 °F (1977)
Min Temperature 49 °F 43 °F 28 °F (1982)
Degree Days  
Heating Degree Days 4 12  
Month to date heating degree days 665 466  
Since 1 July heating degree days 7189 6919  
Cooling Degree Days 0 0  
Month to date cooling degree days 0 0  
Year to date cooling degree days 0 0  
Growing Degree Days 11 (Base 50)    
Moisture  
Dew Point 45 °F    
Average Humidity 63    
Maximum Humidity 86    
Minimum Humidity 40    
Precipitation  
Precipitation 0.00 in 0.12 in 3.91 in (1975)
Month to date precipitation 5.77 2.97  
Year to date precipitation 10.29 7.18  
Snow  
Snow 0.00 in 0.00 in 2.30 in (2002)
Month to date snowfall 4.2 1.6  
Since 1 July snowfall 59.8 43.2  
Snow Depth 0.00 in    
Sea Level Pressure  
Sea Level Pressure 30.08 in    
Wind  
Wind Speed 9 mph (South)    
Max Wind Speed 17 mph    
Max Gust Speed 21 mph    
Visibility 10 miles    
Events      
T = Trace of Precipitation, MM = Missing Value Source: NWS Daily Summary

Daily Weather History Graph

Daily Weather History Graph

Search for Another Location

Airport or City:

Trip Planner

Search our weather history database for the weather conditions in past years. The results will help you decide how hot, cold, wet, or windy it might be!

Date:

Astronomy

Apr. 27, 2013 Rise Set
Actual Time 6:02 AM CDT 8:03 PM CDT
Civil Twilight 5:31 AM CDT 8:34 PM CDT
Nautical Twilight 4:52 AM CDT 9:13 PM CDT
Astronomical Twilight 4:11 AM CDT 9:55 PM CDT
Moon 10:36 PM CDT (4/27) 7:17 AM CDT (4/27)
Length of Visible Light 15h 03m
Length of Day
14h 01m
Waning Gibbous, 95% of the Moon is Illuminated
Apr 27
Waning Gibbous
May 2
Last Quarter
May 9
New
May 17
First Quarter
May 24
Full

Hourly Weather History & Observations

Time (CDT) Temp. Dew Point Humidity Pressure Visibility Wind Dir Wind Speed Gust Speed Precip Events Conditions
12:53 AM 57.0 °F 46.9 °F 69% 30.16 in 10.0 mi SE 8.1 mph - N/A   Clear
1:53 AM 54.0 °F 46.0 °F 75% 30.16 in 10.0 mi SSE 6.9 mph - N/A   Partly Cloudy
2:53 AM 54.0 °F 46.0 °F 75% 30.15 in 10.0 mi South 6.9 mph - N/A   Clear
3:53 AM 52.0 °F 46.0 °F 80% 30.14 in 10.0 mi South 10.4 mph - N/A   Clear
4:53 AM 51.1 °F 46.0 °F 83% 30.15 in 10.0 mi South 9.2 mph - N/A   Clear
5:53 AM 50.0 °F 45.0 °F 83% 30.15 in 10.0 mi South 8.1 mph - N/A   Clear
6:53 AM 50.0 °F 46.0 °F 86% 30.16 in 10.0 mi SSE 4.6 mph - N/A   Clear
7:53 AM 53.1 °F 46.0 °F 77% 30.16 in 10.0 mi South 6.9 mph - N/A   Clear
8:53 AM 55.9 °F 46.0 °F 69% 30.16 in 10.0 mi South 8.1 mph - N/A   Clear
9:53 AM 59.0 °F 46.0 °F 62% 30.14 in 10.0 mi SSE 9.2 mph - N/A   Clear
10:53 AM 63.0 °F 46.9 °F 56% 30.13 in 10.0 mi SSE 10.4 mph - N/A   Clear
11:53 AM 66.0 °F 46.0 °F 48% 30.12 in 10.0 mi South 10.4 mph - N/A   Clear
12:53 PM 66.9 °F 46.9 °F 49% 30.10 in 10.0 mi South 8.1 mph - N/A   Clear
1:53 PM 69.1 °F 46.9 °F 45% 30.08 in 10.0 mi South 10.4 mph - N/A   Clear
2:53 PM 72.0 °F 46.0 °F 40% 30.06 in 10.0 mi South 13.8 mph - N/A   Clear
3:53 PM 71.1 °F 46.0 °F 41% 30.03 in 10.0 mi South 12.7 mph - N/A   Clear
4:53 PM 70.0 °F 45.0 °F 41% 30.02 in 10.0 mi South 15.0 mph - N/A   Clear
5:53 PM 69.1 °F 45.0 °F 42% 30.00 in 10.0 mi South 15.0 mph - N/A   Clear
6:53 PM 66.0 °F 44.1 °F 45% 29.99 in 10.0 mi South 15.0 mph - N/A   Clear
7:53 PM 64.0 °F 44.1 °F 48% 30.00 in 10.0 mi South 12.7 mph - N/A   Clear
8:53 PM 61.0 °F 44.1 °F 54% 30.00 in 10.0 mi South 9.2 mph - N/A   Clear
9:53 PM 57.9 °F 43.0 °F 58% 30.00 in 10.0 mi South 6.9 mph - N/A   Clear
10:53 PM 53.1 °F 43.0 °F 69% 29.99 in 10.0 mi SE 3.5 mph - N/A   Clear
11:53 PM 52.0 °F 44.1 °F 74% 29.98 in 10.0 mi SE 5.8 mph - N/A   Clear